FDX146 SBBR-SBGL

Flight info

Callsign FDX146
Flight time 1h 20m
Altitude 29000
Route GEPMO UZ24 MAVGU
Aircraft RJ1H/M-SDFGIRWY/LB1

Departure

Time 2026-04-27 01:12
Airport Presidente Juscelino Kubitschek International Airport (SBBR)

Arrival

Time 2026-04-27 02:33
Airport Rio Galeão – Tom Jobim International Airport (SBGL)
Time Latitude Longitude Altitude Speed Heading
2026-04-27 00:14 -15.86852 -47.92577 3457 ft 0 kts 176°
2026-04-27 00:51 -15.86840 -47.92578 3457 ft 3 kts 171°
2026-04-27 00:51 -15.86821 -47.92583 3459 ft 3 kts 156°
2026-04-27 00:51 -15.86805 -47.92594 3457 ft 3 kts 128°
2026-04-27 00:51 -15.86799 -47.92609 3457 ft 1 kts 88°
2026-04-27 00:52 -15.86799 -47.92611 3457 ft 0 kts 86°
2026-04-27 01:03 -15.86799 -47.92606 3457 ft 0 kts 86°
2026-04-27 01:03 -15.86798 -47.92585 3514 ft 5 kts 87°
2026-04-27 01:03 -15.86797 -47.92571 3457 ft 4 kts 87°
2026-04-27 01:03 -15.86785 -47.92524 3459 ft 9 kts 60°
2026-04-27 01:04 -15.86721 -47.92491 3459 ft 13 kts 28°
2026-04-27 01:04 -15.86643 -47.92446 3457 ft 11 kts 29°
2026-04-27 01:04 -15.86574 -47.92409 3458 ft 11 kts 17°
2026-04-27 01:04 -15.86535 -47.92465 3458 ft 13 kts 271°
2026-04-27 01:05 -15.86539 -47.92555 3457 ft 12 kts 266°
2026-04-27 01:05 -15.86545 -47.92648 3457 ft 14 kts 266°
2026-04-27 01:05 -15.86546 -47.92738 3457 ft 13 kts 291°
2026-04-27 01:05 -15.86459 -47.92765 3458 ft 8 kts 356°
2026-04-27 01:06 -15.86450 -47.92765 3456 ft 0 kts 356°
2026-04-27 01:06 -15.86449 -47.92765 3456 ft 1 kts 356°
2026-04-27 01:06 -15.86423 -47.92761 3456 ft 6 kts 25°
2026-04-27 01:06 -15.86378 -47.92716 3458 ft 11 kts 51°
2026-04-27 01:07 -15.86350 -47.92625 3459 ft 16 kts 85°
2026-04-27 01:07 -15.86347 -47.92579 3458 ft 0 kts 86°
2026-04-27 01:10 -15.86346 -47.92572 3458 ft 9 kts 86°
2026-04-27 01:10 -15.86332 -47.92352 3461 ft 53 kts 86°
2026-04-27 01:10 -15.86298 -47.91805 3464 ft 97 kts 86°
2026-04-27 01:11 -15.86246 -47.90977 3477 ft 131 kts 86°
2026-04-27 01:11 -15.86188 -47.89965 3624 ft 142 kts 88°
2026-04-27 01:11 -15.86139 -47.88930 3801 ft 145 kts 88°
2026-04-27 01:11 -15.86105 -47.87926 3837 ft 140 kts 91°
2026-04-27 01:12 -15.86169 -47.86909 3993 ft 142 kts 104°
2026-04-27 01:12 -15.86643 -47.85999 4135 ft 150 kts 141°
2026-04-27 01:12 -15.87629 -47.85762 4370 ft 150 kts 181°
2026-04-27 01:12 -15.88669 -47.85808 4596 ft 154 kts 181°
2026-04-27 01:13 -15.89725 -47.85872 4951 ft 151 kts 182°
2026-04-27 01:13 -15.90769 -47.85953 5298 ft 150 kts 182°
2026-04-27 01:13 -15.91812 -47.86079 5635 ft 153 kts 185°
2026-04-27 01:13 -15.92951 -47.86212 5693 ft 176 kts 184°
2026-04-27 01:14 -15.94231 -47.86299 5753 ft 192 kts 180°
2026-04-27 01:14 -15.95614 -47.86302 5809 ft 205 kts 177°
2026-04-27 01:14 -15.97116 -47.86213 5776 ft 229 kts 174°
2026-04-27 01:14 -15.98779 -47.86027 5829 ft 251 kts 171°
2026-04-27 01:15 -16.00562 -47.85752 5966 ft 267 kts 170°
2026-04-27 01:15 -16.02437 -47.85402 6174 ft 277 kts 168°
2026-04-27 01:15 -16.04317 -47.85005 6568 ft 280 kts 167°
2026-04-27 01:15 -16.06228 -47.84581 6962 ft 281 kts 167°
2026-04-27 01:16 -16.08177 -47.84321 7347 ft 283 kts 178°
2026-04-27 01:16 -16.10152 -47.84297 7730 ft 285 kts 180°
2026-04-27 01:16 -16.12149 -47.84313 8121 ft 287 kts 180°
2026-04-27 01:16 -16.14151 -47.84355 8515 ft 288 kts 180°
2026-04-27 01:17 -16.16096 -47.83933 8868 ft 290 kts 151°
2026-04-27 01:17 -16.17649 -47.82597 9289 ft 291 kts 134°
2026-04-27 01:17 -16.19060 -47.81078 9748 ft 293 kts 134°
2026-04-27 01:17 -16.20473 -47.79532 10202 ft 295 kts 133°
2026-04-27 01:18 -16.21881 -47.77972 10662 ft 297 kts 133°
2026-04-27 01:18 -16.23332 -47.76378 10813 ft 311 kts 133°
2026-04-27 01:18 -16.24871 -47.74719 10868 ft 325 kts 134°
2026-04-27 01:18 -16.26464 -47.73038 11015 ft 334 kts 134°
2026-04-27 01:19 -16.28106 -47.71323 11327 ft 335 kts 135°
2026-04-27 01:19 -16.29777 -47.69620 11636 ft 337 kts 135°
2026-04-27 01:19 -16.31459 -47.67914 11948 ft 338 kts 135°
2026-04-27 01:19 -16.33137 -47.66193 12250 ft 339 kts 135°
2026-04-27 01:20 -16.34813 -47.64458 12558 ft 340 kts 135°
2026-04-27 01:20 -16.36497 -47.62715 12848 ft 342 kts 135°
2026-04-27 01:20 -16.38186 -47.60967 13130 ft 343 kts 135°
2026-04-27 01:20 -16.39892 -47.59222 13411 ft 344 kts 135°
2026-04-27 01:21 -16.41607 -47.57468 13690 ft 346 kts 135°
2026-04-27 01:21 -16.43317 -47.55701 13941 ft 347 kts 135°
2026-04-27 01:21 -16.45033 -47.53928 14173 ft 348 kts 135°
2026-04-27 01:21 -16.46757 -47.52146 14369 ft 350 kts 135°
2026-04-27 01:22 -16.48491 -47.50355 14585 ft 352 kts 135°
2026-04-27 01:22 -16.50235 -47.48556 14796 ft 353 kts 135°
2026-04-27 01:22 -16.51969 -47.46777 14999 ft 355 kts 135°
2026-04-27 01:22 -16.53731 -47.44962 15213 ft 356 kts 135°
2026-04-27 01:23 -16.55499 -47.43142 15430 ft 358 kts 135°
2026-04-27 01:23 -16.57273 -47.41318 15632 ft 359 kts 135°
2026-04-27 01:23 -16.59058 -47.39481 15831 ft 361 kts 135°
2026-04-27 01:23 -16.60849 -47.37642 16028 ft 363 kts 135°
2026-04-27 01:24 -16.62653 -47.35788 16229 ft 364 kts 135°
2026-04-27 01:24 -16.64469 -47.33927 16428 ft 366 kts 135°
2026-04-27 01:24 -16.66284 -47.32064 16621 ft 367 kts 135°
2026-04-27 01:24 -16.67496 -47.30823 16752 ft 368 kts 135°
2026-04-27 01:25 -16.69952 -47.28310 17003 ft 370 kts 135°
2026-04-27 01:25 -16.71785 -47.26414 17184 ft 372 kts 134°
2026-04-27 01:25 -16.73622 -47.24494 17371 ft 373 kts 134°
2026-04-27 01:25 -16.75472 -47.22591 17557 ft 375 kts 134°
2026-04-27 01:26 -16.76707 -47.21322 17676 ft 376 kts 134°
2026-04-27 01:26 -16.78556 -47.19395 17856 ft 377 kts 134°
2026-04-27 01:26 -16.80425 -47.17449 18033 ft 379 kts 134°
2026-04-27 01:26 -16.82923 -47.14884 18248 ft 381 kts 134°
2026-04-27 01:27 -16.84207 -47.13564 18357 ft 382 kts 134°
2026-04-27 01:27 -16.86078 -47.11637 18516 ft 383 kts 135°
2026-04-27 01:27 -16.88020 -47.09728 18696 ft 384 kts 136°
2026-04-27 01:27 -16.89989 -47.07826 18873 ft 384 kts 136°
2026-04-27 01:28 -16.91954 -47.05939 19050 ft 385 kts 136°
2026-04-27 01:28 -16.93931 -47.04040 19217 ft 386 kts 136°
2026-04-27 01:28 -16.96556 -47.01520 19443 ft 387 kts 136°
2026-04-27 01:28 -16.97901 -47.00228 19565 ft 388 kts 136°
2026-04-27 01:29 -16.99889 -46.98316 19755 ft 388 kts 136°
2026-04-27 01:29 -17.02521 -46.95780 19980 ft 390 kts 137°
2026-04-27 01:29 -17.03846 -46.94503 20100 ft 390 kts 136°
2026-04-27 01:29 -17.05843 -46.92570 20272 ft 391 kts 136°
2026-04-27 01:30 -17.07843 -46.90635 20460 ft 392 kts 136°
2026-04-27 01:30 -17.09843 -46.88694 20639 ft 393 kts 136°
2026-04-27 01:30 -17.11853 -46.86744 20821 ft 394 kts 137°
2026-04-27 01:30 -17.13871 -46.84807 21003 ft 395 kts 137°
2026-04-27 01:31 -17.15926 -46.82896 21177 ft 396 kts 141°
2026-04-27 01:31 -17.18146 -46.81181 21355 ft 397 kts 146°
2026-04-27 01:31 -17.20477 -46.79625 21540 ft 398 kts 148°
2026-04-27 01:31 -17.22868 -46.78150 21724 ft 399 kts 150°
2026-04-27 01:32 -17.25279 -46.76703 21914 ft 400 kts 150°
2026-04-27 01:32 -17.27700 -46.75271 22108 ft 401 kts 150°
2026-04-27 01:32 -17.30128 -46.73815 22296 ft 402 kts 150°
2026-04-27 01:32 -17.32550 -46.72345 22487 ft 403 kts 150°
2026-04-27 01:33 -17.34971 -46.70868 22671 ft 404 kts 149°
2026-04-27 01:33 -17.37404 -46.69380 22879 ft 405 kts 149°
2026-04-27 01:33 -17.39809 -46.67905 23057 ft 406 kts 149°
2026-04-27 01:33 -17.42249 -46.66408 23235 ft 407 kts 149°
2026-04-27 01:34 -17.44700 -46.64901 23415 ft 408 kts 149°
2026-04-27 01:34 -17.47152 -46.63392 23595 ft 409 kts 149°
2026-04-27 01:34 -17.49605 -46.61882 23739 ft 410 kts 149°
2026-04-27 01:34 -17.52072 -46.60363 23889 ft 411 kts 149°
2026-04-27 01:35 -17.54542 -46.58845 24018 ft 413 kts 149°
2026-04-27 01:35 -17.57026 -46.57321 24165 ft 413 kts 149°
2026-04-27 01:35 -17.59518 -46.55793 24292 ft 415 kts 149°
2026-04-27 01:35 -17.61983 -46.54283 24436 ft 416 kts 149°
2026-04-27 01:36 -17.64487 -46.52750 24538 ft 418 kts 149°
2026-04-27 01:36 -17.66995 -46.51192 24650 ft 420 kts 149°
2026-04-27 01:36 -17.69516 -46.49637 24819 ft 420 kts 149°
2026-04-27 01:36 -17.72035 -46.48091 24991 ft 420 kts 149°
2026-04-27 01:37 -17.74557 -46.46539 25155 ft 420 kts 149°
2026-04-27 01:37 -17.77071 -46.44964 25331 ft 420 kts 149°
2026-04-27 01:37 -17.79590 -46.43411 25497 ft 420 kts 149°
2026-04-27 01:37 -17.82119 -46.41861 25679 ft 420 kts 149°
2026-04-27 01:38 -17.84642 -46.40312 25851 ft 420 kts 149°
2026-04-27 01:38 -17.87149 -46.38743 26031 ft 420 kts 149°
2026-04-27 01:38 -17.89668 -46.37178 26204 ft 420 kts 149°
2026-04-27 01:38 -17.92164 -46.35650 26375 ft 420 kts 149°
2026-04-27 01:39 -17.94687 -46.34086 26553 ft 420 kts 149°
2026-04-27 01:39 -17.97197 -46.32517 26735 ft 420 kts 149°
2026-04-27 01:39 -17.99719 -46.30965 26914 ft 420 kts 149°
2026-04-27 01:39 -18.02239 -46.29413 27080 ft 420 kts 149°
2026-04-27 01:40 -18.04758 -46.27841 27261 ft 420 kts 148°
2026-04-27 01:40 -18.07266 -46.26272 27434 ft 420 kts 149°
2026-04-27 01:40 -18.09790 -46.24723 27608 ft 420 kts 149°
2026-04-27 01:40 -18.12309 -46.23165 27787 ft 420 kts 148°
2026-04-27 01:41 -18.14824 -46.21597 27965 ft 420 kts 148°
2026-04-27 01:41 -18.17333 -46.20030 28141 ft 420 kts 148°
2026-04-27 01:41 -18.19844 -46.18462 28316 ft 420 kts 148°
2026-04-27 01:41 -18.22365 -46.16904 28488 ft 420 kts 149°
2026-04-27 01:42 -18.24855 -46.15366 28667 ft 420 kts 148°
2026-04-27 01:42 -18.27370 -46.13802 28849 ft 420 kts 148°
2026-04-27 01:42 -18.29878 -46.12241 28988 ft 419 kts 148°
2026-04-27 01:43 -18.34948 -46.09085 29039 ft 427 kts 148°
2026-04-27 01:43 -18.40102 -46.05869 29052 ft 434 kts 148°
2026-04-27 01:44 -18.45321 -46.02633 29046 ft 435 kts 149°
2026-04-27 01:44 -18.50513 -45.99407 29043 ft 433 kts 148°
2026-04-27 01:45 -18.55692 -45.96155 29042 ft 428 kts 150°
2026-04-27 01:45 -18.60759 -45.92980 29041 ft 424 kts 151°
2026-04-27 01:46 -18.65868 -45.89831 29046 ft 426 kts 150°
2026-04-27 01:46 -18.70959 -45.86638 29044 ft 426 kts 150°
2026-04-27 01:47 -18.76022 -45.83473 29039 ft 425 kts 151°
2026-04-27 01:47 -18.81151 -45.80260 29042 ft 427 kts 150°
2026-04-27 01:48 -18.86240 -45.77101 29040 ft 427 kts 151°
2026-04-27 01:48 -18.91405 -45.73983 29041 ft 427 kts 152°
2026-04-27 01:49 -18.96565 -45.70843 29032 ft 427 kts 151°
2026-04-27 01:49 -19.01735 -45.67682 29034 ft 428 kts 151°
2026-04-27 01:50 -19.06859 -45.64541 29026 ft 428 kts 152°
2026-04-27 01:50 -19.12038 -45.61408 29033 ft 428 kts 152°
2026-04-27 01:51 -19.17200 -45.58242 29031 ft 429 kts 151°
2026-04-27 01:51 -19.22371 -45.55083 29034 ft 429 kts 152°
2026-04-27 01:52 -19.27543 -45.51917 29034 ft 429 kts 151°
2026-04-27 01:52 -19.32684 -45.48777 29033 ft 429 kts 152°
2026-04-27 01:53 -19.37854 -45.45591 29030 ft 430 kts 151°
2026-04-27 01:53 -19.43023 -45.42400 29031 ft 429 kts 152°
2026-04-27 01:54 -19.48195 -45.39223 29030 ft 430 kts 152°
2026-04-27 01:54 -19.53380 -45.36024 29036 ft 430 kts 152°
2026-04-27 01:55 -19.58513 -45.32846 29031 ft 430 kts 152°
2026-04-27 01:55 -19.63700 -45.29663 29027 ft 430 kts 152°
2026-04-27 01:56 -19.71468 -45.24860 29036 ft 430 kts 152°
2026-04-27 01:56 -19.76649 -45.21640 29038 ft 431 kts 152°
2026-04-27 01:57 -19.81839 -45.18448 29040 ft 431 kts 152°
2026-04-27 01:57 -19.86988 -45.15247 29038 ft 431 kts 152°
2026-04-27 01:58 -19.92179 -45.12054 29040 ft 431 kts 152°
2026-04-27 01:58 -19.97377 -45.08856 29040 ft 432 kts 152°
2026-04-27 01:59 -20.02576 -45.05655 29047 ft 431 kts 152°
2026-04-27 01:59 -20.07772 -45.02450 29042 ft 432 kts 152°
2026-04-27 02:00 -20.12968 -44.99234 29047 ft 432 kts 152°
2026-04-27 02:00 -20.18172 -44.96049 29050 ft 432 kts 152°
2026-04-27 02:01 -20.23367 -44.92830 29046 ft 432 kts 152°
2026-04-27 02:01 -20.28546 -44.89657 29052 ft 432 kts 153°
2026-04-27 02:02 -20.33741 -44.86432 29061 ft 432 kts 153°
2026-04-27 02:02 -20.38946 -44.83232 29056 ft 432 kts 152°
2026-04-27 02:03 -20.44154 -44.80005 29060 ft 432 kts 153°
2026-04-27 02:03 -20.49352 -44.76780 29059 ft 433 kts 152°
2026-04-27 02:04 -20.54513 -44.73436 29059 ft 433 kts 151°
2026-04-27 02:04 -20.59610 -44.70093 29060 ft 433 kts 151°
2026-04-27 02:05 -20.64747 -44.66708 29058 ft 434 kts 151°
2026-04-27 02:05 -20.69882 -44.63319 29071 ft 434 kts 151°
2026-04-27 02:06 -20.75016 -44.59920 29080 ft 434 kts 151°
2026-04-27 02:06 -20.80173 -44.56519 29075 ft 434 kts 152°
2026-04-27 02:07 -20.85360 -44.53260 29076 ft 434 kts 153°
2026-04-27 02:07 -20.90586 -44.50002 29077 ft 434 kts 152°
2026-04-27 02:08 -20.95787 -44.46700 29069 ft 434 kts 153°
2026-04-27 02:08 -21.00965 -44.43450 29072 ft 434 kts 152°
2026-04-27 02:09 -21.06188 -44.40155 29077 ft 435 kts 153°
2026-04-27 02:09 -21.11399 -44.36843 29076 ft 435 kts 152°
2026-04-27 02:10 -21.16611 -44.33525 29078 ft 435 kts 153°
2026-04-27 02:10 -21.21788 -44.30229 29073 ft 436 kts 152°
2026-04-27 02:11 -21.25765 -44.27671 29077 ft 435 kts 152°
2026-04-27 02:11 -21.27566 -44.26506 29074 ft 436 kts 152°
2026-04-27 02:12 -21.32759 -44.23146 29074 ft 436 kts 152°
2026-04-27 02:12 -21.37933 -44.19820 29064 ft 436 kts 152°
2026-04-27 02:13 -21.43135 -44.16460 29066 ft 436 kts 153°
2026-04-27 02:13 -21.48340 -44.13098 29076 ft 437 kts 152°
2026-04-27 02:14 -21.53551 -44.09735 29066 ft 436 kts 153°
2026-04-27 02:14 -21.58825 -44.06488 29061 ft 435 kts 156°
2026-04-27 02:15 -21.64223 -44.03663 29068 ft 434 kts 159°
2026-04-27 02:15 -21.69696 -44.00924 29001 ft 427 kts 159°
2026-04-27 02:16 -21.72369 -43.99575 28733 ft 424 kts 158°
2026-04-27 02:16 -21.75047 -43.98198 28738 ft 429 kts 158°
2026-04-27 02:16 -21.80346 -43.95449 28398 ft 415 kts 158°
2026-04-27 02:17 -21.82958 -43.94089 27895 ft 418 kts 158°
2026-04-27 02:17 -21.85586 -43.92733 27325 ft 420 kts 158°
2026-04-27 02:17 -21.87330 -43.91835 26942 ft 420 kts 158°
2026-04-27 02:17 -21.90864 -43.90026 26158 ft 420 kts 158°
2026-04-27 02:18 -21.93520 -43.88678 25586 ft 422 kts 158°
2026-04-27 02:18 -21.96174 -43.87326 25034 ft 424 kts 157°
2026-04-27 02:18 -21.97938 -43.86415 24666 ft 424 kts 157°
2026-04-27 02:18 -22.00610 -43.85034 24123 ft 425 kts 157°
2026-04-27 02:19 -22.03281 -43.83659 23580 ft 426 kts 157°
2026-04-27 02:19 -22.05925 -43.82305 22951 ft 424 kts 157°
2026-04-27 02:19 -22.08572 -43.80929 22316 ft 420 kts 156°
2026-04-27 02:19 -22.12097 -43.79101 21498 ft 418 kts 157°
2026-04-27 02:20 -22.13830 -43.78205 21095 ft 415 kts 157°
2026-04-27 02:20 -22.16424 -43.76863 20409 ft 413 kts 157°
2026-04-27 02:20 -22.19005 -43.75528 19712 ft 410 kts 157°
2026-04-27 02:20 -22.21570 -43.74199 18956 ft 409 kts 157°
2026-04-27 02:21 -22.24139 -43.72866 18161 ft 409 kts 157°
2026-04-27 02:21 -22.26692 -43.71545 17272 ft 404 kts 156°
2026-04-27 02:21 -22.29215 -43.70231 16452 ft 399 kts 156°
2026-04-27 02:21 -22.31681 -43.68942 15732 ft 391 kts 156°
2026-04-27 02:22 -22.34114 -43.67683 15016 ft 383 kts 156°
2026-04-27 02:22 -22.36496 -43.66450 14330 ft 376 kts 155°
2026-04-27 02:22 -22.38837 -43.65230 13633 ft 370 kts 155°
2026-04-27 02:22 -22.41113 -43.64049 12883 ft 364 kts 155°
2026-04-27 02:23 -22.43376 -43.62866 12134 ft 358 kts 155°
2026-04-27 02:23 -22.45599 -43.61695 11395 ft 352 kts 155°
2026-04-27 02:23 -22.47792 -43.60550 10690 ft 347 kts 156°
2026-04-27 02:23 -22.49942 -43.59440 10212 ft 335 kts 156°
2026-04-27 02:24 -22.51984 -43.58377 10048 ft 316 kts 156°
2026-04-27 02:24 -22.53901 -43.57376 9985 ft 296 kts 156°
2026-04-27 02:24 -22.55702 -43.56431 9875 ft 281 kts 156°
2026-04-27 02:24 -22.57443 -43.55510 9494 ft 277 kts 156°
2026-04-27 02:25 -22.59167 -43.54604 9010 ft 269 kts 156°
2026-04-27 02:25 -22.60760 -43.53764 8317 ft 245 kts 156°
2026-04-27 02:25 -22.62262 -43.52986 7566 ft 234 kts 156°
2026-04-27 02:25 -22.63645 -43.52156 6842 ft 228 kts 143°
2026-04-27 02:26 -22.64793 -43.50984 6120 ft 226 kts 133°
2026-04-27 02:26 -22.65802 -43.49691 5484 ft 224 kts 128°
2026-04-27 02:26 -22.66771 -43.48303 4897 ft 242 kts 125°
2026-04-27 02:26 -22.67770 -43.46791 4276 ft 247 kts 124°
2026-04-27 02:27 -22.68714 -43.45314 3801 ft 229 kts 123°
2026-04-27 02:27 -22.69604 -43.43933 3297 ft 219 kts 123°
2026-04-27 02:27 -22.70468 -43.42606 2758 ft 212 kts 124°
2026-04-27 02:27 -22.71312 -43.41316 2212 ft 209 kts 124°
2026-04-27 02:28 -22.72132 -43.40062 1807 ft 193 kts 124°
2026-04-27 02:28 -22.72859 -43.38978 1662 ft 166 kts 124°
2026-04-27 02:28 -22.73522 -43.37992 1623 ft 162 kts 124°
2026-04-27 02:28 -22.74143 -43.37061 1593 ft 141 kts 124°
2026-04-27 02:29 -22.74690 -43.36238 1591 ft 131 kts 124°
2026-04-27 02:29 -22.75198 -43.35476 1570 ft 118 kts 123°
2026-04-27 02:29 -22.75675 -43.34756 1566 ft 118 kts 124°
2026-04-27 02:29 -22.76150 -43.34029 1581 ft 118 kts 123°
2026-04-27 02:30 -22.76628 -43.33300 1596 ft 119 kts 123°
2026-04-27 02:30 -22.77109 -43.32570 1606 ft 119 kts 123°
2026-04-27 02:30 -22.77586 -43.31838 1537 ft 125 kts 122°
2026-04-27 02:30 -22.78113 -43.31069 1312 ft 128 kts 126°
2026-04-27 02:31 -22.78648 -43.30295 1040 ft 128 kts 124°
2026-04-27 02:31 -22.79145 -43.29497 777 ft 127 kts 123°
2026-04-27 02:31 -22.79646 -43.28744 567 ft 121 kts 128°
2026-04-27 02:31 -22.80146 -43.28021 394 ft 122 kts 127°
2026-04-27 02:32 -22.80626 -43.27281 243 ft 119 kts 126°
2026-04-27 02:32 -22.81103 -43.26570 115 ft 115 kts 128°
2026-04-27 02:32 -22.81561 -43.25882 42 ft 107 kts 127°
2026-04-27 02:32 -22.81959 -43.25292 27 ft 82 kts 125°
2026-04-27 02:33 -22.82178 -43.24958 23 ft 42 kts 126°
2026-04-27 02:33 -22.82340 -43.24716 19 ft 29 kts 126°
2026-04-27 02:33 -22.82446 -43.24558 18 ft 25 kts 125°
2026-04-27 02:33 -22.82539 -43.24417 21 ft 21 kts 126°
2026-04-27 02:34 -22.82619 -43.24297 22 ft 19 kts 126°
2026-04-27 02:34 -22.82713 -43.24215 22 ft 16 kts 154°
2026-04-27 02:34 -22.82804 -43.24170 23 ft 11 kts 155°
2026-04-27 02:34 -22.82839 -43.24158 22 ft 0 kts 174°
2026-04-27 02:35 -22.82840 -43.24158 22 ft 1 kts 175°
2026-04-27 02:36 -22.82857 -43.24161 22 ft 3 kts 200°
2026-04-27 02:36 -22.82876 -43.24180 22 ft 5 kts 245°
2026-04-27 02:36 -22.82884 -43.24220 21 ft 6 kts 241°
2026-04-27 02:36 -22.82912 -43.24246 21 ft 0 kts 217°
2026-04-27 02:37 -22.82915 -43.24249 23 ft 1 kts 236°
2026-04-27 02:37 -22.82907 -43.24253 21 ft 3 kts 43°
2026-04-27 02:38 -22.82889 -43.24222 22 ft 7 kts 92°
2026-04-27 02:38 -22.82918 -43.24174 21 ft 7 kts 162°
2026-04-27 02:38 -22.82970 -43.24195 22 ft 6 kts 216°
2026-04-27 02:38 -22.82973 -43.24197 21 ft 0 kts 215°
2026-04-27 02:39 -22.82976 -43.24199 21 ft 1 kts 215°
2026-04-27 02:39 -22.82983 -43.24205 21 ft 1 kts 214°
2026-04-27 02:39 -22.82987 -43.24207 21 ft 0 kts 214°
2026-04-27 02:39 -22.82989 -43.24209 23 ft 1 kts 215°
2026-04-27 02:40 -22.82997 -43.24215 22 ft 1 kts 215°
2026-04-27 02:40 -22.82998 -43.24216 22 ft 0 kts 215°